Location: Newark
(36.7344°N, 137.0547°E)
Time: 06:15:26
(UTC+00:00)

Envisat - Pass Details

Date: 14 October 2019
Orbit: 764 x 766 km, 98.1° (Epoch: 14 November)

Event Time Altitude Azimuth Distance (km) Brightness Sun altitude
Rises 09:28:05 0° 182° (S) 3,217 6.2 -14.9°
Reaches altitude 10° 09:30:28 10° 188° (S) 2,295 5.5 -15.4°
Maximum altitude 09:35:18 46° 261° (W) 1,027 4.1 -16.3°
Drops below altitude 10° 09:40:11 10° 334° (NNW) 2,309 5.8 -17.3°
Sets 09:42:36 0° 341° (NNW) 3,239 6.5 -17.8°
